Other Surface Observations
Issued by NWS

Current Version | Previous Version | Text Only | Print | Product List | Glossary On
Versions: 1 2 3 4 5 6 7 8 9 10 11 12 13 14 15 16 17 18 19 20 21 22 23 24 25 26 27 28 29 30 31 32 33 34 35 36 37 38 39 40 41 42 43 44 45 46 47 48 49 50
398
SXUS52 KTAE 262118
OSOTAE
OSOTAE
North Florida/South Alabama/Southwest Georgia Weather Roundup
National Weather Service Tallahassee Florida
500 PM EDT MON SEP 26 2016

Note: "fair" indicates few or no clouds below 12,000 feet with no
significant weather and/or obstructions to visibility.

!FLZ017-115-028-034-025-262200
...North Florida...

CITY           SKY/WX    TMP DP  RH WIND       PRES   REMARKS
TALLAHASSEE    PTSUNNY   90  71  53 W6        29.93S HX  96
APALACHICOLA   PTSUNNY   84  77  79 S6        29.94S HX  94
PERRY          MOSUNNY   87  71  59 N16G26    29.94R THUNDER HX  92
CROSS CITY     PTSUNNY   91  70  49 NE5       29.91S HX  97
JACKSONVILLE   PTSUNNY   85  70  60 NE15      29.94S
$$

!FLZ112-006-005-002-011-262200
...Florida Panhandle...

CITY           SKY/WX    TMP DP  RH WIND       PRES   REMARKS
MARIANNA       MOSUNNY   80  70  71 SW3       29.93F
BONIFAY        FAIR      87  69  54 E6        29.94S HX  91
PANAMA CITY NW SUNNY     88  64  45 SE8       29.94R
TYNDALL AFB    MOSUNNY   85  71  62 VRB3      29.96R HX  91
TYND DRONE APT FAIR      84  71  64 N10       29.95R
DE FUNIAK SPR  RAIN      78  69  75 NW15G21   29.95R
EGLIN AFB      MOSUNNY   86  73  64 SW8       29.94F HX  92
DESTIN         SUNNY     89  75  63 VRB7      29.94F HX  99
HURLBURT       PTSUNNY   85  73  68 W8        29.94S HX  92
CRESTVIEW      LGT RAIN  74  69  85 W8G20     29.97S
PENSACOLA      LGT RAIN  76  69  79 NW7       29.96F
$$

!ALZ063-066-262200
...South Alabama...

CITY           SKY/WX    TMP DP  RH WIND       PRES   REMARKS
DOTHAN         CLOUDY    88  66  48 N6        29.98F HX  90
OZARK CAIRNS   MOSUNNY   81  72  74 NE5       29.94F
FT RUCKER HELI CLOUDY    82  69  64 VRB3      29.94F
RUCKER HELI 3  NOT AVBL
RUCKER HELI 2  NOT AVBL
FLORALA APT    NOT AVBL
ANDALUSIA      MOSUNNY   94  69  44 N6        29.93F HX  99
TROY           CLOUDY    81  68  64 NE6       29.97S
EUFALA         PTSUNNY   90  67  46 N6        29.93F HX  93
MOBILE         TSTM      81  74  79 E13       29.95R
$$

!GAZ120>161-262200
...Southwest and South Central Georgia...

CITY           SKY/WX    TMP DP  RH WIND       PRES   REMARKS
THOMASVILLE    FAIR      84  73  70 NE9       29.99R HX  91
BAINBRIDGE     SUNNY     91  66  43 NE10      29.93F HX  94
MOODY AFB      SUNNY     87  69  56 E7        29.95R HX  91
VALDOSTA       PTSUNNY   83  72  69 SW3       29.96R
MOULTRIE       PTSUNNY   79  70  73 SE10      30.01R
BLAKELY        SUNNY     86  68  54 W3        29.94F
ALBANY         MOSUNNY   83  68  60 SE8       29.97S
TIFTON         RAIN      82  71  69 SE5       29.97R
FITZGERALD     FAIR      89  74  60 SE6       29.98F HX  98
CORDELE        FAIR      92  65  41 NE8       29.96F HX  94
AMERICUS       FAIR      86  55  35 CALM      29.97S
HOMERVILLE     FAIR      84  77  79 CALM      29.96S HX  94
$$

!GMZ750-755-770-775-262200
...Coastal and Buoy Obs...

STATION/POSITION TIME  TEMP    WIND        PRES    VSBY  WAVE
                       AIR SEA DIR/SP/G                  HT/PER
                 (UTC) (F)     (DEG/KT/KT) (MB)    (MI)  (FT/S)
KEATON BEACH     2100   85     270/  6/  7 1012.8F
CEDAR KEY        2100   86     280/  4/  6 1013.2F
C TOWER          2100   81     150/  4/  4 1014.5R
APALACHICOLA BUO 2050   85 88   90/  2/  4 1013.4F         1
PANAMA CITY BUOY 2050   84 90              1014.3F         1
MOBILE BUOY      2100   83 86   70/  4/  6 1014.0F
ORANGE BCH AL BU 2050   81 87   40/ 10/ 14 1014.3F         1
$$




USA.gov is the U.S. government's official web portal to all federal, state and local government web resources and services.